When you browse on this site, cookies collect data to enhance your experience and personalize the content and advertising you see.
Visit our Privacy Policy to learn more. By continuing to use the site, you agree to this use of cookies and data.
  • In Hungary
  • List of Countries
  • For 7 days
  • Water Temperature
  • Weather Map
  • News
  • Weather Widgets
  • user-avatar
    Login

    Hourly Weather Kyzylkiya

    Today, 1 April, Wednesday

    Time Temperature Precipitation Wind Pressure Humidity
    00:00 +14°C° 0 mm 2 mps 709 mmHg 79%
    01:00 +14°C° 0 mm 2 mps 709 mmHg 78%
    02:00 +14°C° 0 mm 2 mps 709 mmHg 77%
    03:00 +14°C° 0 mm 2 mps 710 mmHg 76%
    04:00 +14°C° 0 mm 2 mps 710 mmHg 75%
    05:00 +14°C° 0 mm 2 mps 710 mmHg 75%
    06:00 +14°C° 0.3 mm 2 mps 710 mmHg 75%
    07:00 +14°C° 0.3 mm 3 mps 711 mmHg 74%
    08:00 +14°C° 0.3 mm 3 mps 711 mmHg 74%
    09:00 +15°C° 0.8 mm 4 mps 712 mmHg 71%
    10:00 +15°C° 0.8 mm 4 mps 713 mmHg 68%
    11:00 +16°C° 0.8 mm 5 mps 713 mmHg 65%
    12:00 +14°C° 1.9 mm 5 mps 713 mmHg 73%
    13:00 +13°C° 1.9 mm 5 mps 713 mmHg 81%
    14:00 +10°C° 1.9 mm 5 mps 713 mmHg 90%
    15:00 +12°C° 1 mm 5 mps 714 mmHg 85%
    16:00 +12°C° 1 mm 4 mps 715 mmHg 81%
    17:00 +12°C° 1 mm 4 mps 715 mmHg 76%
    18:00 +12°C° 0.1 mm 4 mps 715 mmHg 78%
    19:00 +11°C° 0.1 mm 3 mps 715 mmHg 79%
    20:00 +11°C° 0.1 mm 3 mps 716 mmHg 81%
    21:00 +12°C° 0.6 mm 2 mps 716 mmHg 82%
    22:00 +12°C° 0.6 mm 2 mps 716 mmHg 83%
    23:00 +12°C° 0.6 mm 1 mps 717 mmHg 84%

    Tomorrow, 2 April, Thursday

    Time Temperature Precipitation Wind Pressure Humidity
    00:00 +12°C° 0.3 mm 2 mps 716 mmHg 83%
    01:00 +10°C° 0.3 mm 2 mps 716 mmHg 82%
    02:00 +10°C° 0.3 mm 3 mps 716 mmHg 81%
    03:00 +10°C° 0 mm 2 mps 717 mmHg 80%
    04:00 +10°C° 0 mm 2 mps 717 mmHg 80%
    05:00 +9°C° 0 mm 2 mps 717 mmHg 79%
    06:00 +10°C° 0 mm 2 mps 718 mmHg 75%
    07:00 +12°C° 0 mm 2 mps 718 mmHg 71%
    08:00 +13°C° 0 mm 2 mps 718 mmHg 67%
    09:00 +15°C° 0 mm 2 mps 718 mmHg 59%
    10:00 +16°C° 0 mm 2 mps 718 mmHg 52%
    11:00 +18°C° 0 mm 3 mps 718 mmHg 44%
    12:00 +18°C° 0 mm 2 mps 718 mmHg 41%
    13:00 +19°C° 0 mm 2 mps 717 mmHg 39%
    14:00 +19°C° 0 mm 2 mps 717 mmHg 36%
    15:00 +19°C° 0 mm 2 mps 717 mmHg 37%
    16:00 +20°C° 0 mm 1 mps 716 mmHg 37%
    17:00 +20°C° 0 mm 1 mps 716 mmHg 38%
    18:00 +17°C° 0 mm 2 mps 716 mmHg 44%
    19:00 +16°C° 0 mm 2 mps 716 mmHg 51%
    20:00 +14°C° 0 mm 2 mps 716 mmHg 57%
    21:00 +14°C° 0 mm 2 mps 716 mmHg 58%
    22:00 +12°C° 0 mm 3 mps 716 mmHg 59%
    23:00 +12°C° 0 mm 3 mps 716 mmHg 59%

    Day after tomorrow, 3 April, Friday

    Time Temperature Precipitation Wind Pressure Humidity
    00:00 +12°C° 0 mm 3 mps 716 mmHg 57%
    01:00 +12°C° 0 mm 3 mps 716 mmHg 54%
    02:00 +12°C° 0 mm 3 mps 715 mmHg 52%
    03:00 +12°C° 0 mm 3 mps 715 mmHg 49%
    04:00 +12°C° 0 mm 3 mps 715 mmHg 47%
    05:00 +12°C° 0 mm 3 mps 715 mmHg 45%
    06:00 +13°C° 0 mm 2 mps 715 mmHg 45%
    07:00 +14°C° 0 mm 2 mps 715 mmHg 46%
    08:00 +15°C° 0 mm 2 mps 715 mmHg 46%
    09:00 +17°C° 0 mm 2 mps 715 mmHg 40%
    10:00 +19°C° 0 mm 2 mps 716 mmHg 34%
    11:00 +23°C° 0 mm 2 mps 716 mmHg 28%
    12:00 +23°C° 0 mm 2 mps 716 mmHg 26%
    13:00 +24°C° 0 mm 1 mps 716 mmHg 23%
    14:00 +25°C° 0 mm 1 mps 716 mmHg 21%
    15:00 +24°C° 0 mm 1 mps 715 mmHg 26%
    16:00 +24°C° 0 mm 1 mps 715 mmHg 31%
    17:00 +23°C° 0 mm 1 mps 715 mmHg 37%
    18:00 +20°C° 0 mm 2 mps 715 mmHg 39%
    19:00 +19°C° 0 mm 2 mps 715 mmHg 41%
    20:00 +17°C° 0 mm 3 mps 715 mmHg 42%
    21:00 +17°C° 0 mm 3 mps 715 mmHg 42%
    22:00 +17°C° 0 mm 3 mps 715 mmHg 41%
    23:00 +16°C° 0 mm 3 mps 715 mmHg 41%

    4 April, Saturday

    Time Temperature Precipitation Wind Pressure Humidity
    00:00 +16°C° 0 mm 3 mps 715 mmHg 41%
    01:00 +16°C° 0 mm 3 mps 715 mmHg 41%
    02:00 +16°C° 0 mm 3 mps 714 mmHg 41%
    03:00 +16°C° 0 mm 3 mps 714 mmHg 41%
    04:00 +16°C° 0 mm 3 mps 714 mmHg 41%
    05:00 +16°C° 0 mm 3 mps 714 mmHg 40%
    06:00 +17°C° 0 mm 3 mps 714 mmHg 42%
    07:00 +18°C° 0 mm 3 mps 714 mmHg 44%
    08:00 +19°C° 0 mm 3 mps 715 mmHg 45%
    09:00 +21°C° 0 mm 2 mps 715 mmHg 40%
    10:00 +24°C° 0 mm 2 mps 715 mmHg 35%
    11:00 +26°C° 0 mm 2 mps 715 mmHg 30%
    12:00 +26°C° 0 mm 2 mps 715 mmHg 31%
    13:00 +26°C° 0 mm 3 mps 714 mmHg 32%
    14:00 +26°C° 0 mm 4 mps 714 mmHg 33%
    15:00 +26°C° 0 mm 3 mps 714 mmHg 37%
    16:00 +25°C° 0 mm 3 mps 713 mmHg 42%
    17:00 +24°C° 0 mm 3 mps 713 mmHg 47%
    18:00 +22°C° 0 mm 3 mps 713 mmHg 47%
    19:00 +21°C° 0 mm 3 mps 713 mmHg 47%
    20:00 +19°C° 0 mm 3 mps 713 mmHg 47%
    21:00 +19°C° 0 mm 2 mps 713 mmHg 46%
    22:00 +18°C° 0 mm 2 mps 713 mmHg 45%
    23:00 +19°C° 0 mm 1 mps 713 mmHg 44%

    5 April, Sunday

    Time Temperature Precipitation Wind Pressure Humidity
    00:00 +18°C° 0 mm 1 mps 713 mmHg 44%
    01:00 +18°C° 0 mm 1 mps 712 mmHg 44%
    02:00 +16°C° 0 mm 2 mps 712 mmHg 44%
    03:00 +16°C° 0 mm 2 mps 712 mmHg 45%
    04:00 +16°C° 0 mm 2 mps 713 mmHg 46%
    05:00 +15°C° 0 mm 2 mps 713 mmHg 47%
    06:00 +16°C° 0 mm 2 mps 713 mmHg 50%
    07:00 +17°C° 0 mm 2 mps 713 mmHg 53%
    08:00 +17°C° 0 mm 2 mps 714 mmHg 55%
    09:00 +18°C° 0 mm 3 mps 714 mmHg 53%
    10:00 +20°C° 0 mm 3 mps 714 mmHg 51%
    11:00 +21°C° 0 mm 4 mps 715 mmHg 49%
    12:00 +21°C° 0 mm 4 mps 715 mmHg 47%
    13:00 +22°C° 0 mm 5 mps 715 mmHg 46%
    14:00 +22°C° 0 mm 5 mps 715 mmHg 44%
    15:00 +22°C° 0 mm 4 mps 714 mmHg 47%
    16:00 +21°C° 0 mm 2 mps 714 mmHg 49%
    17:00 +21°C° 0 mm 1 mps 714 mmHg 52%
    18:00 +20°C° 0 mm 1 mps 714 mmHg 56%
    19:00 +19°C° 0 mm 1 mps 714 mmHg 60%
    20:00 +16°C° 0 mm 1 mps 715 mmHg 63%
    21:00 +16°C° 0.1 mm 1 mps 715 mmHg 64%
    22:00 +16°C° 0.1 mm 1 mps 715 mmHg 65%
    23:00 +16°C° 0.1 mm 1 mps 715 mmHg 66%

    6 April, Monday

    Time Temperature Precipitation Wind Pressure Humidity
    00:00 +15°C° 0.3 mm 1 mps 715 mmHg 71%
    01:00 +15°C° 0.3 mm 1 mps 715 mmHg 77%
    02:00 +14°C° 0.3 mm 1 mps 715 mmHg 83%
    03:00 +13°C° 0 mm 1 mps 715 mmHg 84%
    04:00 +13°C° 0 mm 1 mps 715 mmHg 86%
    05:00 +12°C° 0 mm 1 mps 715 mmHg 87%
    06:00 +13°C° 0 mm 2 mps 715 mmHg 86%
    07:00 +13°C° 0 mm 2 mps 715 mmHg 85%
    08:00 +12°C° 0 mm 3 mps 715 mmHg 85%
    09:00 +14°C° 0 mm 3 mps 715 mmHg 80%
    10:00 +16°C° 0 mm 3 mps 714 mmHg 76%
    11:00 +18°C° 0 mm 3 mps 714 mmHg 71%
    12:00 +18°C° 0 mm 3 mps 714 mmHg 68%
    13:00 +19°C° 0 mm 4 mps 714 mmHg 65%
    14:00 +20°C° 0 mm 4 mps 713 mmHg 61%
    15:00 +20°C° 0 mm 5 mps 713 mmHg 63%
    16:00 +19°C° 0 mm 5 mps 713 mmHg 65%
    17:00 +19°C° 0 mm 5 mps 713 mmHg 68%
    18:00 +17°C° 0.1 mm 4 mps 713 mmHg 71%
    19:00 +15°C° 0.1 mm 4 mps 713 mmHg 75%
    20:00 +14°C° 0.1 mm 3 mps 713 mmHg 79%
    21:00 +14°C° 0 mm 2 mps 714 mmHg 78%
    22:00 +14°C° 0 mm 2 mps 714 mmHg 77%
    23:00 +14°C° 0 mm 1 mps 714 mmHg 77%
    Show more